Home   Weather   Latakia   Past weeks
Flag for Syria

Past Weather in Latakia, Syria — Yesterday and Last 2 Weeks

Now
54 °F

Clear.


Feels Like: 53 °F
Forecast: 63 / 54 °F
Wind: 3 mph from Northeast

Location: Lattakia Airport

Current Time: Mar 23, 2019 at 3:06:59 am

Latest Report: Mar 23, 2019 at 2:00 am


Visibility: 10 mi

Pressure: 29.98 "Hg

Humidity: 88%

Dew Point: 50 °F

Location of LatakiaLocation

Past Weather in Latakia — Graph

°F

Latakia Temperature Yesterday

Maximum temperature yesterday: 68 °F (at 11:00 am)
Minimum temperature yesterday: 50 °F (at 5:00 am)
Average temperature yesterday: 60 °F

High & Low Weather Summary for the Past Weeks

 TemperatureHumidityPressure
High75 °F (Mar 20, 11:00 am)100% (Mar 21, 9:00 pm)30.33 "Hg (Mar 21, 9:00 pm)
Low41 °F (Mar 8, 4:00 am)29% (Mar 19, 3:00 pm)29.65 "Hg (Mar 13, 3:00 pm)
Average59 °F72%30.01 "Hg
* Reported Mar 8 2:00 am — Mar 23 2:00 am, Latakia. Weather by CustomWeather, © 2019

Note: Actual official high and low records may vary slightly from our data, if they occured in-between our weather recording intervals... More about our weather records

Advertising

Latakia Weather History for the Previous 24 Hours

Scroll right to see more
 ConditionsComfort  
Time TempWeatherWind HumidityBarometerVisibility
2:00 am
Sat, Mar 23
54 °FClear.3 mph88%29.98 "Hg10 mi
1:00 am55 °FClear.7 mph94%29.98 "Hg10 mi
12:00 am55 °FPassing clouds.7 mph94%29.98 "HgN/A
11:00 pm
Fri, Mar 22
57 °FPassing clouds.5 mph94%30.01 "HgN/A
10:00 pm57 °FClear.5 mph94%30.01 "Hg10 mi
9:00 pm59 °FClear.5 mph82%30.01 "Hg10 mi
8:00 pm59 °FClear.5 mph88%30.01 "Hg10 mi
7:00 pm61 °FPassing clouds.3 mph83%29.98 "HgN/A
6:00 pm63 °FPassing clouds.3 mph77%29.98 "HgN/A
5:00 pm66 °FScattered clouds.5 mph78%29.98 "HgN/A
4:00 pm66 °FScattered clouds.7 mph73%29.98 "HgN/A
3:00 pm68 °FPassing clouds.7 mph69%29.98 "Hg5 mi
2:00 pm68 °FPassing clouds.7 mph73%29.98 "Hg4 mi
1:00 pm68 °FBroken clouds.5 mph64%30.01 "Hg4 mi
12:00 pm68 °FBroken clouds.7 mph73%30.04 "Hg4 mi
11:00 am68 °FBroken clouds.9 mph73%30.04 "Hg4 mi
10:00 am64 °FMild.7 mph88%30.04 "Hg4 mi
9:00 am63 °FSunny.8 mph68%30.04 "Hg10 mi
8:00 am61 °FSunny.6 mph63%30.04 "Hg10 mi
7:00 am54 °FScattered clouds.3 mph72%30.01 "HgN/A
6:00 am52 °FScattered clouds.2 mph77%30.01 "HgN/A
5:00 am50 °FPassing clouds.2 mph76%30.01 "HgN/A
4:00 am52 °FClear.2 mph77%30.01 "Hg10 mi
3:00 am52 °FClear.3 mph77%30.01 "Hg10 mi
Weather by CustomWeather, © 2019

See weather overview